Regional Weather Roundup
Issued by NWS

Home | Current Version | Previous Version | Graphics & Text | Print | Product List | Glossary Off
Versions: 1 2 3 4 5 6 7 8 9 10 11 12 13 14 15 16 17 18 19 20 21 22 23 24 25 26 27 28 29 30 31 32 33 34 35 36 37 38 39 40 41 42 43 44 45 46 47 48 49 50

000
ASUS43 KDTX 011610
RWRMI
MICHIGAN HOURLY REGIONAL WEATHER ROUNDUP
NATIONAL WEATHER SERVICE DETROIT/PONTIAC MI
1200 PM EDT SAT AUG 01 2015

NOTE: "FAIR" INDICATES FEW OR NO CLOUDS BELOW 12,000 FEET WITH NO
SIGNIFICANT WEATHER AND/OR OBSTRUCTION TO VISIBILITY.

MIZ047>049-052>055-059>063-066>070-074>076-081>083-011700-
SOUTHEAST LOWER MICHIGAN

CITY           SKY/WX    TMP DP  RH WIND       PRES   REMARKS
ADRIAN         SUNNY     78  56  46 NW12      29.97R
ALMA           MOSUNNY   78  55  44 W14G21    29.91S
ANN ARBOR      SUNNY     78  56  46 W9        29.94S
BAD AXE        MOSUNNY   74  57  54 W9G17     29.90S
DETROIT CITY   SUNNY     79  53  40 W12       29.93R
DETROIT        MOSUNNY   80  53  39 NW8       29.94S
FLINT          MOSUNNY   80  56  43 W14G20    29.92S
GROSSE ILE     SUNNY     81  55  41 W9        29.93R
HILLSDALE      SUNNY     78  55  44 W10G17    29.98S
HOWELL         SUNNY     79  53  39 W13       29.94S

CITY           SKY/WX    TMP DP  RH WIND       PRES   REMARKS
JACKSON        SUNNY     78  58  49 SW10      29.96S
LAMBERTVILLE   SUNNY     79  55  44 N8        29.96S
LANSING        SUNNY     79  55  43 W14G24    29.94S
LAPEER         NOT AVBL
MASON          MOSUNNY   76  56  50 W8        29.94S
MONROE         SUNNY     79  56  45 W7G16     29.94S
MT. CLEMENS    MOSUNNY   80  55  42 W12       29.90R
PONTIAC        MOSUNNY   77  55  46 W13       29.93R
PORT HOPE        N/A     75  56  51 VRB7      29.86S
PORT HURON     SUNNY     75  57  53 W8        29.91S
TRI CITIES     SUNNY     79  57  46 W13       29.90S
YPSILANTI      SUNNY     83  55  38 W9G18     29.94S
$$
MIZ043>046-050>051-056>058-064>065-071>073-077>080-011700-
SOUTHWEST LOWER MICHIGAN

CITY           SKY/WX    TMP DP  RH WIND       PRES   REMARKS
BATTLE CREEK   SUNNY     80  55  42 W12       29.97S
BENTON HARBOR  SUNNY     78  58  49 W10       29.98S
BIG RAPIDS     MOSUNNY   77  52  41 W9G18     29.91S
COLDWATER      SUNNY     78  53  42 W8G16     29.98R
HOLLAND        SUNNY     77  60  55 W9        29.97R
GRAND RAPIDS   MOSUNNY   80  53  39 NW14G21   29.94S
KALAMAZOO      SUNNY     80  56  43 W10       29.97S
MARSHALL       SUNNY     80  56  42 SW12G17   29.95S
MUSKEGON       MOSUNNY   76  58  53 W12       29.95R
$$
MIZ016>042-011700-
NORTHERN LOWER MICHIGAN

CITY           SKY/WX    TMP DP  RH WIND       PRES   REMARKS
ALPENA         MOSUNNY   76  57  51 VRB7      29.85S
BEAVER ISLAND  SUNNY     71  58  63 SW8       29.87R
BELLAIRE       MOSUNNY   74  56  54 W9        29.88R
CADILLAC       MOSUNNY   76  55  47 W8        29.91R
CHARLEVOIX     SUNNY     72  61  67 W12       29.90R
FRANKFORT      SUNNY     73  62  68 W6        29.90S
GAYLORD        MOSUNNY   73  54  51 W9G18     29.88S
GRAYLING       MOSUNNY   76  53  43 W12G21    29.89S
HARBOR SPRINGS SUNNY     72  58  62 W6        29.86S
HOUGHTON LAKE  SUNNY     75  55  49 W13G22    29.89F
MANISTEE       SUNNY     72  57  60 SW6       29.92S
OSCODA         PTSUNNY   78  52  40 NW10      29.85S
PELLSTON       MOSUNNY   74  56  53 NW13      29.85S
TRAVERSE CITY  MOSUNNY   77  54  44 NW12G18   29.86R
$$
MIZ007>008-015-011700-
EASTERN UPPER MICHIGAN

CITY           SKY/WX    TMP DP  RH WIND       PRES   REMARKS
KINROSS        SUNNY     73  55  53 W9G17     29.83S
MACKINAC ISLAN   N/A     70  56  61 SW9       29.85R
NEWBERRY       MOSUNNY   73  56  53 W9        29.84S
S. S. MARIE    SUNNY     68  57  68 W10       29.83R
$$
MIZ004>006-011>014-085-011700-
CENTRAL UPPER MICHIGAN

CITY           SKY/WX    TMP DP  RH WIND       PRES   REMARKS
MANISTIQUE     MOSUNNY   75  54  46 W10       29.85R
ESCANABA       MOSUNNY   75  54  46 N10G18    29.85S
MENOMINEE      SUNNY     73  52  46 NW6       29.88S
SAWYER-GWINN   MOSUNNY   73  50  43 NW16      29.87S
$$
MIZ001>003-009>011-084-011700-
WESTERN UPPER MICHIGAN

CITY           SKY/WX    TMP DP  RH WIND       PRES   REMARKS
IRON MOUNTAIN  SUNNY     74  52  46 NW16G23   29.89S
HOUGHTON       SUNNY     69  55  60 W10       29.86F
COPPER HARBOR    N/A     70  56  61 N15       29.83S
IRONWOOD       SUNNY     70  55  60 W13       29.90S
$$

ABBREVIATIONS USED IN REMARKS
   TC - TEMPERATURE IN CELSIUS
  WCI - WIND CHILL INDEX
   HX - HEAT INDEX
  VSB - VISIBILITY




USA.gov is the U.S. government's official web portal to all federal, state and local government web resources and services.